CW9683 Weather Reports


Display with metric or nautical units.
time (UTC)temp
F
wind
direction
speed
MPH
gust
MPH
rain 1hr
in
rain 24hr
in
rain mn
in
humidity
%
barometer
mb
20260507082804 52 286 2.0 3.0 0.02 0.11 0.02 91 1003.8
20260507081804 53 332 0.0 2.0 0.02 0.11 0.02 90 1003.6
20260507081304 53 332 1.0 1.0 0.02 0.11 0.02 90 1003.6
20260507080804 53 333 0.0 2.0 0.02 0.11 0.02 89 1003.8
20260507074804 54 274 2.0 6.0 0.01 0.10 0.01 85 1003.7
20260507073304 54 255 2.0 3.0 0.00 0.09 0.00 83 1003.6
20260507071305 54 257 1.0 3.0 0.00 0.09 0.00 83 1003.2
20260507070304 54 294 1.0 2.0 0.00 0.09 0.00 83 1003.3
20260507065804 54 296 0.0 2.0 0.00 0.09 0.00 82 1003.0
20260507065306 54 290 2.0 5.0 0.00 0.09 0.00 82 1003.1
20260507064804 55 277 1.0 6.0 0.00 0.09 0.00 82 1003.1
20260507062804 55 292 2.0 7.0 0.00 0.09 0.00 83 1003.2
20260507061804 55 287 2.0 3.0 0.00 0.09 0.00 84 1002.9
20260507061304 55 292 3.0 7.0 0.00 0.09 0.00 83 1003.0
20260507060805 56 250 3.0 7.0 0.00 0.09 0.00 83 1003.1
20260507060305 56 281 1.0 9.0 0.00 0.09 0.00 83 1003.0
20260507055804 56 287 2.0 5.0 0.00 0.09 0.00 85 1003.2
20260507054805 56 244 2.0 5.0 0.00 0.09 0.00 86 1003.3
20260507053804 57 270 2.0 3.0 0.00 0.09 0.00 87 1003.5
20260507052805 57 253 2.0 5.0 0.00 0.09 0.00 88 1003.3
20260507051804 57 262 3.0 6.0 0.00 0.09 0.00 88 1003.2
20260507050804 57 298 3.0 3.0 0.00 0.09 0.00 88 1003.1
20260507044804 58 267 1.0 3.0 0.00 0.09 0.00 89 1003.3
20260507044305 58 288 2.0 3.0 0.00 0.09 0.00 89 1003.2
20260507043304 59 269 5.0 8.0 0.00 0.09 0.00 91 1003.0
20260507041804 60 178 0.0 2.0 0.00 0.09 0.00 93 1003.1
20260507041304 60 212 0.0 3.0 0.00 0.09 0.00 93 1003.1
20260507040845 60 150 1.0 3.0 0.00 0.09 0.00 93 1003.1
20260507040304 60 193 1.0 3.0 0.00 0.09 0.00 92 1003.3
20260507035804 60 179 1.0 3.0 0.00 0.09 0.09 92 1003.1
20260507035306 60 147 0.0 1.0 0.00 0.09 0.09 92 1003.1
20260507034804 60 161 1.0 3.0 0.00 0.09 0.09 92 1002.9
20260507034305 60 177 2.0 3.0 0.00 0.09 0.09 92 1002.9
20260507033304 61 220 3.0 8.0 0.00 0.09 0.09 93 1003.0
20260507031804 61 271 2.0 7.0 0.00 0.09 0.09 91 1002.7
20260507030304 61 170 2.0 8.0 0.00 0.09 0.09 91 1002.3
20260507025804 61 154 2.0 3.0 0.00 0.09 0.09 91 1002.2
20260507025306 61 210 2.0 5.0 0.00 0.09 0.09 91 1002.3
20260507024805 61 170 2.0 9.0 0.00 0.09 0.09 91 1002.4
20260507023304 60 161 2.0 6.0 0.00 0.09 0.09 91 1002.6
20260507020305 60 143 2.0 5.0 0.00 0.09 0.09 92 1002.5
20260507015306 60 159 3.0 8.0 0.00 0.09 0.09 92 1002.6
20260507014804 60 172 5.0 9.0 0.00 0.09 0.09 92 1002.6
20260507011804 60 152 6.0 12.0 0.00 0.09 0.09 91 1002.7
20260507010304 60 174 3.0 9.0 0.00 0.09 0.09 91 1002.9
20260507005804 60 158 3.0 12.0 0.00 0.09 0.09 91 1002.9
20260507003805 60 161 5.0 10.0 0.01 0.09 0.09 91 1002.7
20260507002804 60 151 3.0 12.0 0.01 0.09 0.09 91 1002.8
20260507001804 60 168 5.0 12.0 0.02 0.09 0.09 91 1002.7
20260507001304 60 152 5.0 12.0 0.03 0.09 0.09 92 1002.6
20260507000306 60 185 5.0 10.0 0.03 0.09 0.09 91 1002.5
20260506235306 61 192 4.0 8.0 0.02 0.08 0.08 91 1002.5
20260506234804 61 152 5.0 10.0 0.02 0.08 0.08 91 1002.5
20260506231804 61 165 5.0 12.0 0.01 0.07 0.07 89 1002.5
20260506231304 61 148 5.0 14.0 0.00 0.06 0.06 89 1002.5
20260506225804 61 151 6.0 17.0 0.00 0.06 0.06 90 1002.6
20260506224804 61 140 4.0 9.0 0.00 0.06 0.06 90 1002.6
20260506224304 62 162 7.0 14.0 0.00 0.06 0.06 90 1002.7
20260506223304 62 191 5.0 10.0 0.00 0.06 0.06 90 1002.7
20260506222804 62 145 4.0 20.0 0.00 0.06 0.06 89 1002.8
20260506222306 62 144 3.0 15.0 0.00 0.06 0.06 90 1002.8
20260506221804 62 155 3.0 12.0 0.00 0.06 0.06 89 1003.0
20260506220804 62 163 4.0 16.0 0.00 0.06 0.06 88 1002.9
20260506220304 62 147 5.0 9.0 0.00 0.06 0.06 88 1002.9
20260506215804 63 159 6.0 14.0 0.00 0.06 0.06 86 1003.2
20260506214804 63 168 9.0 17.0 0.01 0.06 0.06 85 1003.2
20260506213804 63 150 5.0 14.0 0.01 0.06 0.06 86 1003.3
20260506212306 63 140 3.0 10.0 0.02 0.06 0.06 86 1003.4
20260506211803 63 163 6.0 16.0 0.03 0.06 0.06 86 1003.5
20260506210804 63 152 6.0 12.0 0.03 0.06 0.06 86 1003.4
20260506204804 63 146 6.0 13.0 0.03 0.05 0.05 85 1003.6
20260506203305 63 172 6.0 15.0 0.04 0.05 0.05 84 1003.7
20260506202804 63 172 6.0 15.0 0.03 0.04 0.04 84 1003.6
20260506201804 64 187 5.0 12.0 0.03 0.03 0.03 81 1003.6
20260506201304 64 162 7.0 14.0 0.03 0.03 0.03 81 1003.5
20260506200804 64 181 3.0 12.0 0.03 0.03 0.03 82 1003.5
20260506195804 65 154 5.0 14.0 0.03 0.03 0.03 81 1003.4
20260506195306 65 150 7.0 12.0 0.03 0.03 0.03 79 1003.5
20260506193304 67 151 6.0 12.0 0.01 0.01 0.01 75 1003.8
20260506192804 68 154 6.0 12.0 0.01 0.01 0.01 73 1003.7
20260506192305 68 154 5.0 10.0 0.01 0.01 0.01 71 1003.7
20260506191303 69 178 5.0 12.0 0.00 0.00 0.00 68 1003.6
20260506190304 69 179 3.0 14.0 0.00 0.00 0.00 68 1003.6
20260506184804 70 158 6.0 15.0 0.00 0.00 0.00 66 1003.7
20260506184304 71 151 6.0 14.0 0.00 0.00 0.00 63 1003.7
20260506182805 72 172 7.0 20.0 0.00 0.00 0.00 60 1003.7
20260506182306 72 204 5.0 12.0 0.00 0.00 0.00 60 1003.7
20260506181804 72 162 6.0 12.0 0.00 0.00 0.00 59 1003.8
20260506181304 72 190 7.0 13.0 0.00 0.00 0.00 58 1003.7
20260506175806 73 159 5.0 14.0 0.00 0.00 0.00 58 1004.0
20260506175306 74 163 5.0 18.0 0.00 0.00 0.00 58 1004.0
20260506174806 73 166 6.0 12.0 0.00 0.00 0.00 59 1004.1
20260506174305 73 160 9.0 18.0 0.00 0.00 0.00 58 1004.1
20260506173305 73 156 11.0 22.0 0.00 0.00 0.00 58 1004.3
20260506171806 74 166 9.0 20.0 0.00 0.00 0.00 58 1004.3
20260506165306 73 150 6.0 18.0 0.00 0.00 0.00 61 1004.5
20260506163306 73 155 5.0 20.0 0.00 0.00 0.00 59 1004.7
20260506162806 73 159 5.0 13.0 0.00 0.00 0.00 59 1004.7
20260506161806 73 152 6.0 15.0 0.00 0.00 0.00 58 1004.9
20260506161306 73 208 4.0 14.0 0.00 0.00 0.00 58 1005.0
20260506160307 73 175 6.0 12.0 0.00 0.00 0.00 58 1005.2
20260506153806 74 164 10.0 20.0 0.00 0.00 0.00 58 1005.6
20260506153306 74 170 6.0 15.0 0.00 0.00 0.00 58 1005.6
20260506152306 74 165 9.0 21.0 0.00 0.00 0.00 57 1005.7
20260506151305 73 178 6.0 14.0 0.00 0.00 0.00 59 1005.8
20260506150806 73 157 8.0 14.0 0.00 0.00 0.00 61 1005.9
20260506150305 72 167 7.0 17.0 0.00 0.00 0.00 61 1006.1
20260506145306 72 165 6.0 16.0 0.00 0.00 0.00 63 1006.0
20260506144806 72 171 5.0 14.0 0.00 0.00 0.00 63 1006.0
20260506144305 71 154 6.0 14.0 0.00 0.00 0.00 63 1005.9
20260506142805 71 145 7.0 17.0 0.00 0.00 0.00 64 1005.9
20260506142306 70 177 7.0 12.0 0.00 0.00 0.00 67 1005.9
20260506135306 68 175 5.0 12.0 0.00 0.00 0.00 71 1006.2
20260506132806 67 182 3.0 12.0 0.00 0.00 0.00 72 1006.7
20260506130305 66 169 8.0 18.0 0.00 0.00 0.00 72 1006.5
20260506125306 67 189 6.0 16.0 0.00 0.00 0.00 72 1006.6
20260506124305 65 158 4.0 14.0 0.00 0.00 0.00 75 1006.5
20260506123806 64 175 6.0 12.0 0.00 0.00 0.00 76 1006.7
20260506122806 64 205 5.0 10.0 0.00 0.00 0.00 75 1006.9
20260506121805 64 174 6.0 17.0 0.00 0.00 0.00 75 1006.6
20260506120305 64 154 6.0 14.0 0.00 0.00 0.00 76 1006.8
20260506115806 64 154 6.0 13.0 0.00 0.00 0.00 76 1006.8
20260506114306 64 181 6.0 10.0 0.00 0.00 0.00 76 1007.0
20260506112806 63 172 6.0 16.0 0.00 0.00 0.00 76 1007.1
20260506111805 63 144 7.0 14.0 0.00 0.00 0.00 77 1006.9
20260506110306 62 170 6.0 12.0 0.00 0.00 0.00 79 1006.9
20260506104805 61 164 5.0 12.0 0.00 0.00 0.00 79 1006.9
20260506103306 62 168 5.0 12.0 0.00 0.00 0.00 79 1007.0
20260506102805 62 170 3.0 9.0 0.00 0.00 0.00 79 1007.0
20260506102306 62 175 6.0 12.0 0.00 0.00 0.00 78 1006.9
20260506101805 62 169 7.0 13.0 0.00 0.00 0.00 78 1006.8
20260506100805 62 149 5.0 16.0 0.00 0.00 0.00 79 1006.8
20260506094805 61 160 5.0 9.0 0.00 0.00 0.00 79 1006.6
20260506093305 61 138 5.0 12.0 0.00 0.00 0.00 78 1006.7
20260506092806 61 199 4.0 10.0 0.00 0.00 0.00 78 1006.7
20260506092306 61 175 4.0 12.0 0.00 0.00 0.00 78 1006.6
20260506091306 61 176 7.0 16.0 0.00 0.00 0.00 77 1006.6
20260506090806 61 178 3.0 8.0 0.00 0.00 0.00 77 1006.6